Theta_e
310 312 304 301 301 298 298 299 299 300 300 301 302 302 302 304 304 304 302 303 305 304 305 306 305 308 310 309 307 308 307 308 309 309 310 312 314 314 314 313 312 313 312 312 311 311 311
309 304 302 300 299 298 298 299 299 300 300 301 302 302 303 303 304 303 303 307 307 306 305 305 306 309 310 308 307 308 307 307 309 310 310 311 313 312 313 313 313 312 311 311 311 311 310
306 303 301 300 299 298 298 299 299 300 300 301 302 303 303 303 303 303 303 306 306 306 305 305 306 308 307 305 307 308 307 307 307 309 310 310 311 312 311 311 311 311 311 310 310 310 310
306 302 301 300 298 297 298 299 299 300 301 302 302 303 303 303 302 303 305 306 305 305 305 305 307 308 305 304 306 307 308 307 307 308 309 310 311 312 312 311 311 313 313 313 309 309 308
307 303 302 299 298 297 298 299 299 300 301 301 302 303 303 302 302 304 306 305 304 305 305 306 310 309 307 305 305 306 307 307 307 308 308 309 310 311 311 313 312 312 313 313 310 309 310
303 302 303 299 298 297 298 299 299 300 301 302 303 303 303 302 304 305 305 305 305 306 306 307 308 311 306 305 305 305 306 307 308 308 310 311 312 313 313 313 314 312 312 312 312 310 311
301 301 302 299 298 297 298 299 300 300 301 302 303 303 302 301 305 305 305 305 308 309 308 308 307 306 306 305 306 306 306 308 309 311 312 312 314 311 310 311 311 311 312 310 309 308 311
301 301 301 298 298 297 298 299 299 300 301 302 302 303 301 301 305 305 305 308 310 307 307 306 306 305 305 306 307 307 308 309 311 311 311 311 309 308 308 309 310 311 312 311 309 308 311
301 300 301 298 298 297 298 299 300 300 301 301 302 302 301 304 305 305 310 310 308 309 309 306 306 305 306 306 306 306 307 308 310 311 310 310 306 305 308 308 308 308 309 308 309 308 310
302 301 300 298 297 298 298 299 300 300 301 301 302 301 302 305 304 309 308 304 307 309 315 308 307 305 306 306 306 305 305 307 309 309 308 306 304 306 306 305 308 309 304 305 306 310 313
303 301 299 298 297 298 298 299 299 300 300 301 301 301 303 305 309 307 309 305 304 307 333 308 306 305 305 308 306 305 306 308 309 308 311 305 305 305 306 303 305 306 304 306 307 311 311
302 300 299 298 297 298 298 299 300 300 300 301 300 301 304 305 307 308 306 304 306 323 330 308 306 307 308 307 306 305 305 305 306 307 306 305 303 304 303 303 304 305 307 308 310 311 314
303 300 299 298 297 298 298 298 299 299 300 301 300 301 303 305 308 305 303 307 324 325 311 308 308 308 309 308 307 308 308 309 311 315 310 306 305 303 303 306 306 308 310 318 316 317 318
303 301 302 298 297 297 298 298 299 299 300 300 300 300 302 303 305 304 304 314 322 312 311 309 308 309 309 309 308 307 308 309 306 309 310 311 310 305 303 305 306 306 309 319 319 314 312
303 303 301 297 297 297 297 298 298 298 300 300 299 300 301 301 302 303 310 323 321 311 309 308 308 309 309 308 309 309 310 309 307 307 313 309 306 302 303 303 304 307 310 306 310 307 307
303 304 300 298 297 297 297 298 297 298 299 299 305 306 306 300 303 306 316 316 310 310 308 309 310 310 310 308 309 311 309 307 305 304 306 307 307 304 302 302 303 307 305 311 311 315 314
303 300 298 299 297 297 297 297 297 298 299 301 306 306 303 301 304 310 320 313 309 307 308 310 310 309 311 309 310 310 309 306 305 304 305 306 310 305 303 304 305 305 306 305 307 308 313
302 300 300 299 297 297 297 296 297 298 300 303 307 311 301 303 311 312 316 309 306 306 306 307 309 309 310 309 309 309 308 308 304 305 306 306 312 308 307 303 302 303 304 306 310 312 307
302 300 300 298 297 297 296 296 297 299 299 305 308 306 303 308 310 315 309 307 307 307 307 308 308 309 309 309 308 308 308 304 304 305 306 304 308 309 305 305 302 303 305 305 306 303 306
304 300 298 297 297 296 296 296 297 299 302 306 307 309 305 307 307 310 308 308 307 306 307 307 308 308 309 309 308 308 306 304 303 304 301 302 306 313 313 310 309 305 305 303 306 306 307
304 299 298 297 296 296 296 296 297 299 302 305 306 307 306 307 310 308 308 308 308 307 306 306 307 309 309 308 307 307 306 304 303 301 302 305 308 306 305 304 303 303 304 303 301 302 303
302 300 300 297 296 296 296 296 298 299 300 306 302 306 305 307 305 308 308 309 308 307 307 308 308 308 309 308 308 309 307 306 306 304 305 304 307 303 303 303 302 302 303 303 303 303 303
301 302 300 297 296 296 295 296 298 299 300 305 304 304 308 306 306 311 310 308 309 307 306 307 308 308 307 307 306 306 306 305 305 307 306 305 306 303 306 302 302 305 305 304 304 304 304
303 300 298 296 296 296 295 296 297 299 302 305 304 306 308 309 307 308 307 307 308 307 307 306 306 307 305 304 303 304 304 304 304 304 305 305 304 304 306 303 307 306 303 304 304 304 304
302 299 297 297 297 296 295 296 297 299 302 303 302 307 309 311 307 306 306 306 306 304 305 305 304 305 303 304 306 307 304 304 304 303 303 303 304 306 306 306 306 305 304 303 303 304 304
300 297 297 298 297 295 295 296 298 301 302 302 300 303 305 309 308 305 305 306 307 307 304 302 302 303 303 306 309 312 309 308 303 303 302 303 304 305 305 305 306 306 304 302 302 304 304
300 297 298 300 296 295 296 296 297 301 302 303 300 300 302 305 305 305 306 307 306 306 307 302 302 302 304 308 314 308 307 304 306 305 303 303 303 305 306 306 305 305 303 302 303 307 304
298 299 299 298 296 296 296 296 297 301 302 303 302 300 301 304 302 304 304 305 305 306 308 303 304 303 306 307 309 308 307 305 304 305 304 304 305 306 306 306 306 303 301 301 304 302 302
297 298 297 296 296 296 297 297 296 300 302 302 302 299 298 302 302 301 302 302 303 305 305 303 306 303 304 309 308 307 306 306 305 306 305 305 305 307 306 306 304 302 302 301 301 301 300
Wind_Speed
30 30 22 27 21 20 19 18 16 15 14 12 11 9 9 9 9 9 9 11 12 12 12 8 10 13 12 15 14 15 21 19 16 13 10 11 9 10 13 24 26 20 21 22 19 17 17
30 25 25 25 24 22 21 19 17 16 14 13 12 10 9 10 10 10 12 14 14 12 13 9 11 15 8 21 11 13 15 17 18 15 17 13 22 21 14 9 11 18 19 15 14 13 15
30 27 25 25 26 24 22 20 18 17 15 14 13 11 10 11 11 11 14 15 14 13 15 13 14 18 26 14 8 8 14 17 15 16 17 10 8 1 20 24 23 22 19 17 10 6 4
28 27 25 26 27 26 23 21 19 18 16 15 13 12 11 12 13 14 17 19 18 14 12 9 14 11 12 10 8 10 9 14 17 15 13 14 17 17 7 19 10 8 8 4 7 1 2
29 29 26 28 28 27 25 22 20 19 17 15 15 14 13 14 17 17 19 18 15 12 10 8 6 10 9 7 12 9 9 8 10 14 12 14 13 16 17 11 8 7 4 10 8 7 1
30 29 28 28 31 28 25 23 21 19 18 16 15 15 16 17 21 21 21 16 16 9 8 5 3 10 9 7 12 10 8 9 8 6 11 8 8 9 4 7 2 7 7 6 7 7 7
29 31 28 32 33 28 26 24 22 20 18 17 16 16 17 21 24 24 23 22 8 7 18 16 16 26 19 14 12 15 8 10 9 11 16 20 13 12 11 10 9 7 7 10 8 5 1
33 31 31 34 34 29 27 24 22 20 18 17 16 17 19 25 27 26 22 10 3 21 17 20 20 18 11 7 13 16 9 3 5 13 19 15 15 9 8 8 8 7 6 8 6 6 5
37 35 33 36 33 29 27 25 23 21 20 19 19 20 23 26 27 29 10 5 14 9 7 7 9 11 14 12 11 11 8 16 17 14 13 12 8 6 6 7 10 11 7 4 6 2 1
41 33 33 37 33 30 29 27 25 23 21 21 21 22 25 27 24 15 7 9 23 8 2 5 4 4 3 7 8 10 6 3 3 12 11 12 5 5 9 8 8 3 5 3 3 6 1
40 33 35 40 33 32 31 28 26 24 22 22 23 25 27 28 11 18 10 27 11 1 2 5 5 4 5 3 13 8 7 15 8 7 3 6 9 5 7 6 6 5 3 3 4 6 4
41 38 39 37 35 34 32 30 28 25 23 23 24 26 27 25 15 18 16 20 2 2 4 6 8 12 9 7 7 6 7 11 14 20 20 11 7 9 4 1 4 2 4 5 5 3 6
44 41 40 39 38 36 33 31 28 26 24 23 24 26 27 20 13 16 23 9 2 3 8 8 11 11 10 9 6 5 6 5 1 5 5 9 7 5 6 4 1 5 4 3 3 4 2
45 40 38 38 39 37 35 32 29 27 25 24 24 25 26 25 17 18 19 4 3 5 7 7 16 15 9 12 7 5 5 6 4 2 7 5 5 6 6 6 4 3 4 1 4 3 3
48 44 43 44 40 38 36 33 31 28 25 24 23 20 18 22 20 22 14 3 5 8 10 14 14 12 11 8 6 6 2 5 3 2 2 3 4 5 5 6 5 2 1 4 3 1 4
48 44 46 43 41 39 37 35 32 29 27 26 17 14 9 20 25 20 4 4 3 2 13 18 6 9 9 13 10 9 7 3 6 3 1 2 5 4 4 3 5 5 3 2 2 1 4
51 49 47 43 41 40 38 36 33 31 29 26 17 9 11 21 25 13 3 4 4 10 14 10 3 7 7 15 8 10 8 6 4 6 2 5 1 6 3 4 1 3 3 2 1 3 3
54 51 47 43 41 40 39 37 35 33 33 27 14 4 17 28 9 4 3 6 8 12 6 2 3 3 10 12 7 6 7 2 10 10 7 4 1 4 3 4 2 2 2 5 2 3 5
54 51 46 43 42 41 39 38 37 36 36 17 12 7 20 17 5 6 8 8 7 14 12 7 5 3 5 9 5 8 10 7 11 7 6 8 4 3 5 5 3 3 2 3 2 3 10
54 49 45 44 43 42 41 40 38 38 33 18 10 4 8 8 6 14 14 10 8 8 9 6 10 10 9 9 4 10 10 6 9 6 5 3 4 3 3 1 5 4 8 6 5 4 5
55 51 47 45 44 42 41 40 40 41 32 15 6 5 11 6 6 19 17 13 14 8 8 11 6 7 10 6 7 7 11 12 9 8 6 2 2 0 4 9 9 9 10 13 15 13 7
56 51 45 43 43 41 41 40 41 42 31 8 7 6 7 11 18 18 13 13 16 11 14 15 8 11 10 8 5 11 11 9 6 11 7 4 0 3 5 7 10 14 17 17 19 20 22
54 48 44 43 43 42 42 41 41 41 31 8 5 12 8 12 17 11 11 13 16 14 3 12 11 12 9 8 6 10 9 10 7 10 10 6 3 2 3 4 9 11 16 19 18 18 17
51 47 44 44 42 41 41 40 40 41 27 8 9 10 6 4 13 13 15 16 16 16 8 11 15 10 11 17 19 16 11 7 8 7 9 6 7 3 3 4 4 3 1 4 6 10 14
51 45 44 43 41 40 41 40 40 41 28 12 16 6 5 4 15 16 16 14 15 11 15 18 5 9 23 16 5 4 2 2 4 6 7 7 7 3 3 5 13 14 3 8 5 11 10
49 47 45 42 39 40 40 38 39 39 33 17 16 10 6 9 7 14 19 23 15 14 12 8 16 18 12 5 2 4 5 4 4 6 7 9 9 5 3 3 4 4 4 3 5 10 7
46 46 43 40 38 38 38 37 37 36 33 21 16 11 8 8 3 11 14 16 13 13 7 15 11 8 6 3 2 3 4 5 7 8 6 8 6 10 9 6 8 7 2 0 5 4 9
46 44 41 39 37 36 36 35 35 34 31 24 18 11 8 8 7 6 5 12 15 13 6 19 9 3 2 3 3 3 4 6 3 6 10 10 8 5 8 4 7 7 2 5 11 14 17
46 42 40 38 36 35 34 34 33 32 29 24 19 14 8 9 9 12 13 13 9 3 19 22 1 13 8 3 3 2 2 3 5 3 11 7 7 3 8 5 6 3 9 16 16 20 22
Wind_Direction
223 223 212 220 198 187 184 184 181 173 173 163 154 164 168 164 168 170 141 125 118 115 113 115 90 85 78 71 34 2 20 24 29 45 68 75 78 60 86 99 94 91 95 93 94 87 86
212 213 207 214 196 187 184 183 183 178 174 164 159 170 171 167 171 164 137 127 120 115 109 114 97 95 94 76 26 24 28 32 43 50 70 88 88 96 84 69 96 113 97 98 96 99 91
211 210 203 211 198 183 183 185 183 180 175 168 163 169 174 172 166 159 138 130 126 116 116 117 107 79 75 62 31 46 31 39 44 62 74 91 114 34 110 94 116 120 104 83 59 74 76
210 210 205 206 194 181 183 185 184 182 177 172 167 170 174 170 161 153 136 126 123 128 127 115 96 90 75 39 50 36 49 53 52 54 79 88 96 105 98 127 143 164 192 166 58 185 12
212 213 206 205 192 183 183 186 185 183 179 175 170 172 171 169 157 148 139 128 115 112 119 112 70 105 84 38 39 36 62 43 43 54 75 89 94 107 137 148 156 200 98 102 106 34 125
211 211 206 202 193 184 183 186 186 185 181 176 172 173 168 166 155 148 141 125 107 72 87 94 32 90 67 64 47 31 42 37 41 77 81 99 123 134 109 245 30 125 111 72 61 25 86
212 210 198 202 195 183 185 187 186 186 182 179 175 172 167 164 156 148 141 123 117 74 76 87 75 98 102 84 63 41 48 51 87 75 76 51 86 68 60 44 60 74 106 97 79 35 99
209 205 197 200 193 183 187 188 186 185 180 178 177 173 167 165 160 159 156 214 51 135 93 85 85 86 94 90 63 43 37 72 90 100 109 87 71 65 64 75 78 79 111 88 108 53 270
207 205 195 199 189 183 187 187 185 185 180 178 178 174 168 166 165 169 174 231 147 148 111 80 83 86 78 90 58 46 68 61 80 88 63 78 87 61 72 87 82 51 39 36 359 48 78
201 197 191 200 185 185 188 187 185 185 181 177 176 171 166 167 166 183 199 195 156 158 138 128 150 87 96 122 63 50 38 70 76 96 84 67 80 93 86 65 318 106 16 302 267 251 268
194 199 197 199 184 187 188 187 185 185 181 177 174 170 168 165 192 180 204 176 171 10 188 171 115 115 134 78 140 51 61 70 89 114 179 95 61 74 73 39 334 57 304 271 257 258 236
193 194 193 190 187 189 188 187 184 184 180 177 173 170 169 176 159 190 196 177 210 267 213 162 151 151 118 107 80 94 89 100 85 79 84 101 89 42 47 55 13 100 192 198 226 251 239
193 190 190 190 188 188 187 185 184 182 180 177 173 170 169 180 185 182 171 163 169 210 160 165 166 172 134 134 111 129 134 105 121 115 115 116 74 96 19 231 209 198 222 221 213 203 294
191 186 189 193 189 187 185 182 183 181 179 176 173 174 181 180 182 173 167 196 192 156 191 152 153 148 142 138 125 145 157 115 74 329 148 176 164 358 10 22 355 31 333 302 254 293 342
187 189 188 192 187 187 184 180 181 179 176 172 168 168 179 186 173 169 171 191 178 172 140 156 155 162 147 147 154 156 162 111 86 349 157 140 111 102 54 39 314 69 111 3 305 241 267
188 190 192 188 186 185 182 180 179 177 172 166 151 149 171 177 167 158 175 228 160 169 156 163 168 206 170 164 159 184 167 136 127 113 259 122 129 206 128 250 60 1 82 205 61 308 271
188 188 193 188 185 183 181 179 177 174 167 155 152 150 172 165 155 174 196 190 144 157 153 196 151 185 174 158 166 169 146 140 143 132 183 129 132 147 191 210 149 150 144 88 328 303 285
188 187 189 187 184 182 182 178 176 171 161 146 156 122 162 151 142 156 188 167 140 154 148 136 168 126 160 162 162 135 155 128 159 150 141 70 158 167 121 106 313 311 192 187 238 184 254
187 183 187 187 183 182 181 179 175 171 164 145 129 117 162 153 139 195 156 144 169 166 163 167 143 136 141 160 136 131 127 124 152 158 161 167 167 152 174 170 190 231 123 98 98 266 245
185 180 186 186 184 182 181 179 175 170 161 149 145 114 162 203 207 186 180 171 148 191 146 168 132 139 139 139 119 149 126 148 161 144 110 151 199 225 316 74 114 169 197 201 202 211 258
180 179 185 183 182 181 181 178 176 171 161 143 161 169 173 175 217 193 187 180 161 155 185 175 173 177 160 156 153 152 130 137 173 146 177 206 191 268 253 247 245 233 200 198 216 225 236
180 179 182 183 181 181 180 180 178 175 169 138 139 146 177 169 173 185 183 197 178 169 166 183 192 175 156 162 177 176 157 170 164 172 178 162 202 284 261 250 265 269 260 241 228 227 247
175 179 185 182 182 180 181 180 180 177 172 175 154 138 146 165 173 176 188 188 187 157 190 181 187 164 161 113 111 140 155 164 152 172 182 165 153 207 268 336 317 278 258 239 245 238 243
176 182 184 181 180 181 180 181 180 179 173 168 148 139 119 175 186 184 188 181 177 181 148 156 163 158 114 122 105 98 99 118 148 157 187 185 162 176 275 290 260 53 41 2 275 267 260
175 181 178 178 179 179 180 181 181 181 176 156 163 136 124 130 185 181 182 173 131 130 140 123 76 128 146 139 96 85 64 72 262 185 200 200 181 207 244 245 292 287 299 235 256 284 296
177 178 176 175 176 178 179 181 182 184 185 180 173 140 114 117 188 183 174 150 141 125 110 108 118 135 155 118 133 174 180 141 175 159 224 199 222 213 191 258 259 82 83 339 308 276 56
177 175 172 175 175 176 178 180 182 182 184 180 164 157 127 105 84 178 165 169 160 153 119 142 148 150 170 133 162 183 188 178 171 174 174 178 209 223 220 251 273 315 207 318 249 25 344
174 169 172 173 173 174 176 179 180 181 184 186 179 180 147 107 79 96 137 150 160 149 149 153 126 166 136 157 179 189 227 197 216 184 175 177 180 192 220 241 259 141 151 233 346 313 310
168 169 170 169 170 172 174 176 177 179 182 184 181 179 163 121 123 124 115 122 118 112 140 167 5 153 164 144 196 183 189 169 214 226 183 202 210 215 194 217 134 213 277 299 306 305 306